TITAN 3C TRANSTAGE DEB, 33510

Orbit data source: Space-Track

TITAN 3C TRANSTAGE DEB, 33510 is space debris in GEO originally from a launch on Thu, 26 Sep 1968 UTC launched from the Air Force Eastern Test Range (AFETR). Debris objects in space refer to the collection of defunct objects orbiting the Earth. Examples of debris include non-operational satellites, rocket bodies, and fragments generated from explosions, collisions, or faulty payload assembly.

Not visible in the next 10 days
Identifier
33510, 1968-081L
Orbit
GEO
Country
Flag of USUS
Related business
Manufacturer
Unknown
Mission
Spacecraft
Bus & Motor
Unknown
Mass
Unknown
Launch date (UTC)
1968-09-26 (58 years ago)
Launch vehicle
Unknown
Launch site
Air Force Eastern Test Range (AFETR)
Object type
Payload
Rocket body
Debris
Shape & HBR
Unknown shape, 1.1 m
Radar Cross Section
Medium (>0.1 m² and <1 m²)

Expand to show TLE details & history
Last TLE update: 17 hours ago

TLE from 17 hours ago
0 TITAN 3C TRANSTAGE DEB
1 33510U 68081L   26257.73956744 -.00000217  00000-0  00000-0 0  9993
2 33510   2.2308  55.5616 0060425 301.3693  13.0242  1.01832606  8017
Epoch: 2026-09-14T17:44Z
TLE epoch observation values (Epoch: 2026-09-14T17:44:58.626Z)
Latitude
-1.59688°
Longitude
110.16647°
Altitude
35,107.605 km
Speed
3.109 km/s
True Right ascension
00h 40m 30s
True Declination
-1° 35' 43"
Sunlit
Object was in daylight at epoch
Visualization orbit readout
Latitude
Unknown
Longitude
Unknown
Altitude
Unknown
Speed
Unknown
Apparent Right ascension
Unknown
Apparent Declination
Unknown
Sunlit
N/A
Visualization observer readout
Local Sidereal Time
03:23:09
Azimuth
Unknown
Elevation
Unknown
Doppler factor
Unknown
Orbital elements
Apogee altitude
35,607.894 km
Perigee altitude
35,103.54 km
Semi-major axis
41,733.854 km
Eccentricity
0.00604
Inclination
2.2308°
RAAN
55.5616°
Arg. of periapsis
301.3693°
True anomaly
13.1814°
Mean anomaly
13.0242°
Eccentric anomaly
13.10268°
Mean motion
0.25457 °/min
Orbital period
1,414.14 mins
BSTAR
0
Loading maneuver chart data...
Computing Atmospheric mass density...

Documentation

Showing up to 5 results
|